Location: Newark
(34.3481°N, 134.0494°E)
Time: 09:08:23
(UTC+00:00)

N. Korean satellite - Visible Passes

Search period start: 12 December 2019 00:00
Search period end: 22 December 2019 00:00
Orbit: 455 x 506 km, 97.2° (Epoch: 11 December)

Date Brightness Start Highest point End Pass type
(mag) Time Alt. Az. Time Alt. Az. Time Alt. Az.
12 Dec 7.5 08:27:05 10° S 08:30:43 55° W 08:34:21 10° NNW visible
12 Dec 9.8 19:58:30 10° ENE 20:00:19 14° E 20:02:09 10° SE visible
12 Dec 7.6 21:30:50 10° NNW 21:33:42 24° WNW 21:36:32 10° SW visible
13 Dec 6.5 21:04:58 10° N 21:08:23 57° WNW 21:11:45 10° SSW visible
14 Dec 9.9 09:11:16 10° SW 09:13:22 15° W 09:15:28 10° WNW visible
14 Dec 7.2 20:39:33 10° NNE 20:42:57 55° E 20:46:20 10° S visible
15 Dec 8.8 08:44:30 10° SSW 08:47:49 31° W 08:51:07 10° NNW visible
15 Dec 9.0 20:14:38 10° NE 20:17:28 23° E 20:20:15 10° SSE visible
16 Dec 6.9 08:18:40 10° S 08:22:21 73° WSW 08:26:02 10° NNW visible
16 Dec 10.1 19:51:16 10° E 19:51:52 10° E 19:52:27 10° ESE visible
16 Dec 7.2 21:22:15 10° N 21:25:20 31° WNW 21:28:24 10° SW visible
17 Dec 6.3 20:56:31 10° N 20:59:59 77° WNW 21:03:23 10° SSW visible
18 Dec 9.7 09:02:20 10° SW 09:04:56 18° W 09:07:33 10° NW visible
18 Dec 7.8 20:31:15 10° NNE 20:34:32 41° E 20:37:46 10° S visible
19 Dec 8.2 08:35:57 10° S 08:39:25 40° W 08:42:53 10° NNW visible
19 Dec 9.4 20:06:34 10° NE 20:09:00 18° E 20:11:24 10° SE visible
20 Dec 6.8 21:13:42 10° N 21:16:57 40° WNW 21:20:10 10° SW visible
21 Dec 10.3 09:21:12 10° WSW 09:22:06 11° W 09:22:59 10° WNW visible
21 Dec 6.5 20:48:07 10° NNE 20:51:34 79° ESE 20:54:57 10° S visible
